Location: Newark
(7.0858°N, 171.3717°E)
Time: 04:05:55
(UTC+00:00)

Courier 1B Rocket - Pass Details

Date: 05 December 2020
Orbit: 920 x 1202 km, 28.2° (Epoch: 20 January)

Event Time Altitude Azimuth Distance (km) Brightness Sun altitude
Rises 13:47:53 0° 262° (W) 3,781 - -64.9°
Reaches altitude 10° 13:50:44 10° 270° (W) 2,873 - -64.3°
Maximum altitude 13:57:13 38° 336° (NNW) 1,624 - -63.1°
Drops below altitude 10° 14:04:08 10° 43° (NE) 3,053 - -61.7°
Sets 14:07:16 0° 51° (NE) 4,045 - -61.0°
